Data No, UTC Date,UTC Time,Latitude,Longitude,Course(deg),Temp(degC),Sal(psu),pH
1051,2019/6/27,17:30,35-35.92N,139-47.27E,215,22.217,24.6379,8.29
1052,2019/6/27,17:31,35-35.74N,139-47.18E,198,22.03,25.1905,8.28
1053,2019/6/27,17:32,35-35.54N,139-47.16E,175,22.042,25.6816,8.27
1054,2019/6/27,17:33,35-35.35N,139-47.25E,153,22.077,25.9749,8.26
1055,2019/6/27,17:34,35-35.16N,139-47.39E,147,21.664,26.0922,8.24
1056,2019/6/27,17:35,35-34.99N,139-47.57E,133,21.573,26.8437,8.21
1057,2019/6/27,17:36,35-34.83N,139-47.78E,133,21.521,27.9232,8.18
1058,2019/6/27,17:37,35-34.67N,139-47.99E,134,21.698,28.2996,8.15
1059,2019/6/27,17:38,35-34.50N,139-48.21E,133,21.665,28.2195,8.14
1060,2019/6/27,17:39,35-34.35N,139-48.43E,124,21.712,27.8759,8.15
1061,2019/6/27,17:40,35-34.20N,139-48.69E,126,21.657,28.2968,8.15
1062,2019/6/27,17:41,35-34.04N,139-48.96E,126,21.611,28.7025,8.13
1063,2019/6/27,17:42,35-33.87N,139-49.23E,127,21.763,28.7667,8.16
1064,2019/6/27,17:43,35-33.69N,139-49.52E,127,21.977,28.8153,8.18
1065,2019/6/27,17:44,35-33.51N,139-49.80E,127,22.094,28.7956,8.2
1066,2019/6/27,17:45,35-33.33N,139-50.10E,127,22.227,28.8206,8.22
1067,2019/6/27,17:46,35-33.10N,139-50.34E,146,22.329,28.7359,8.27
1068,2019/6/27,17:47,35-32.81N,139-50.46E,167,22.376,28.7067,8.3
1069,2019/6/27,17:48,35-32.51N,139-50.53E,168,22.282,28.741,8.35
1070,2019/6/27,17:49,35-32.20N,139-50.60E,169,22.197,28.808,8.38
1071,2019/6/27,17:50,35-31.89N,139-50.68E,168,22.164,28.907,8.4
1072,2019/6/27,17:51,35-31.57N,139-50.75E,168,22.2,28.8007,8.4
1073,2019/6/27,17:52,35-31.26N,139-50.83E,168,22.038,28.5974,8.41
1074,2019/6/27,17:53,35-30.95N,139-50.91E,168,21.722,28.829,8.39
1075,2019/6/27,17:54,35-30.63N,139-50.99E,169,21.778,29.156,8.38
1076,2019/6/27,17:55,35-30.32N,139-50.96E,188,21.661,29.2579,8.36
1077,2019/6/27,17:56,35-30.00N,139-50.89E,189,21.831,29.4662,8.33
1078,2019/6/27,17:57,35-29.69N,139-50.83E,189,21.81,29.871,8.3
1079,2019/6/27,17:58,35-29.38N,139-50.77E,190,21.823,30.2525,8.26
1080,2019/6/27,17:59,35-29.08N,139-50.63E,208,21.836,30.4962,8.26
1081,2019/6/27,18:00,35-28.85N,139-50.38E,223,21.783,30.6852,8.27
1082,2019/6/27,18:01,35-28.63N,139-50.12E,224,21.77,30.7781,8.28
1083,2019/6/27,18:02,35-28.43N,139-49.81E,232,21.749,30.8661,8.29
1084,2019/6/27,18:03,35-28.24N,139-49.51E,232,21.676,30.8796,8.29
1085,2019/6/27,18:04,35-28.04N,139-49.20E,231,21.653,30.9229,8.29
1086,2019/6/27,18:05,35-27.84N,139-48.90E,231,21.577,30.9704,8.28
1087,2019/6/27,18:06,35-27.65N,139-48.59E,234,21.526,31.0149,8.27
1088,2019/6/27,18:07,35-27.48N,139-48.27E,235,21.413,31.1107,8.27
1089,2019/6/27,18:08,35-27.30N,139-47.95E,235,21.389,31.212,8.26
1090,2019/6/27,18:09,35-27.12N,139-47.63E,235,21.358,31.3906,8.24
1091,2019/6/27,18:10,35-26.94N,139-47.30E,235,21.361,31.5168,8.23
1092,2019/6/27,18:11,35-26.76N,139-46.98E,236,21.36,31.5697,8.21
1093,2019/6/27,18:12,35-26.58N,139-46.65E,235,21.291,31.5988,8.21
1094,2019/6/27,18:13,35-26.40N,139-46.33E,235,21.204,31.6626,8.2
1095,2019/6/27,18:14,35-26.22N,139-46.01E,235,21.085,31.7248,8.2
1096,2019/6/27,18:15,35-26.04N,139-45.68E,235,20.999,31.8056,8.19
1097,2019/6/27,18:16,35-25.85N,139-45.36E,234,20.874,31.9268,8.18
1098,2019/6/27,18:17,35-25.67N,139-45.04E,234,20.79,31.9859,8.16
1099,2019/6/27,18:18,35-25.48N,139-44.71E,234,20.762,32.0886,8.14
1100,2019/6/27,18:19,35-25.29N,139-44.39E,234,20.746,32.1189,8.13
1101,2019/6/27,18:20,35-25.11N,139-44.07E,234,20.72,32.1364,8.12
1102,2019/6/27,18:21,35-24.92N,139-43.75E,234,20.696,32.1459,8.12
1103,2019/6/27,18:22,35-24.73N,139-43.43E,231,20.582,32.1952,8.11
1104,2019/6/27,18:23,35-24.48N,139-43.21E,208,20.526,32.2935,8.11
1105,2019/6/27,18:24,35-24.20N,139-43.05E,204,20.482,32.3972,8.1
1106,2019/6/27,18:25,35-23.91N,139-42.89E,203,20.495,32.4589,8.09
1107,2019/6/27,18:26,35-23.60N,139-42.73E,203,20.475,32.4814,8.08
1108,2019/6/27,18:27,35-23.30N,139-42.57E,203,20.524,32.4619,8.07
1109,2019/6/27,18:28,35-23.00N,139-42.42E,201,20.503,32.4793,8.07
1110,2019/6/27,18:29,35-22.70N,139-42.40E,174,20.597,32.4877,8.07
1111,2019/6/27,18:30,35-22.38N,139-42.43E,175,21.342,32.5114,8.07
1112,2019/6/27,18:31,35-22.07N,139-42.46E,175,21.754,32.6327,8.06
1113,2019/6/27,18:32,35-21.75N,139-42.49E,176,21.884,32.6294,8.06
1114,2019/6/27,18:33,35-21.43N,139-42.51E,177,21.973,32.5685,8.08
1115,2019/6/27,18:34,35-21.10N,139-42.54E,176,22.042,32.5252,8.11
1116,2019/6/27,18:35,35-20.79N,139-42.56E,175,22.023,32.5354,8.15
1117,2019/6/27,18:36,35-20.51N,139-42.59E,176,22.092,32.6078,8.16
1118,2019/6/27,18:37,35-20.26N,139-42.61E,175,22.185,32.6798,8.18
1119,2019/6/27,18:38,35-20.03N,139-42.63E,175,22.224,32.7186,8.18
1120,2019/6/27,18:39,35-19.82N,139-42.65E,173,22.221,32.7399,8.17
1121,2019/6/27,18:40,35-19.62N,139-42.74E,151,22.179,32.7801,8.17
1122,2019/6/27,18:41,35-19.46N,139-42.88E,142,22.117,32.8201,8.18
1123,2019/6/27,18:42,35-19.29N,139-43.03E,143,22.255,32.8476,8.18
1124,2019/6/27,18:43,35-19.13N,139-43.18E,143,22.319,32.8175,8.17
1125,2019/6/27,18:44,35-18.96N,139-43.33E,143,22.324,32.6792,8.17
1126,2019/6/27,18:45,35-18.78N,139-43.48E,143,22.314,32.5822,8.18
1127,2019/6/27,18:46,35-18.61N,139-43.64E,144,22.161,32.4872,8.19
1128,2019/6/27,18:47,35-18.43N,139-43.79E,145,22.265,32.4705,8.2
1129,2019/6/27,18:48,35-18.24N,139-43.95E,144,22.229,32.4364,8.2
1130,2019/6/27,18:49,35-18.06N,139-44.11E,144,22.296,32.4215,8.19
1131,2019/6/27,18:50,35-17.88N,139-44.27E,144,22.383,32.427,8.21
1132,2019/6/27,18:51,35-17.70N,139-44.43E,144,22.444,32.4411,8.21
1133,2019/6/27,18:52,35-17.52N,139-44.58E,144,22.5,32.3293,8.21
1134,2019/6/27,18:53,35-17.34N,139-44.74E,144,22.572,32.2696,8.21
1135,2019/6/27,18:54,35-17.16N,139-44.89E,145,22.641,32.2873,8.22
1136,2019/6/27,18:55,35-16.98N,139-45.05E,144,22.702,32.3512,8.22
1137,2019/6/27,18:56,35-16.81N,139-45.20E,144,22.705,32.4269,8.22
1138,2019/6/27,18:57,35-16.63N,139-45.36E,145,22.692,32.5059,8.23
1139,2019/6/27,18:58,35-16.45N,139-45.51E,145,22.748,32.5617,8.22
1140,2019/6/27,18:59,35-16.27N,139-45.67E,144,22.845,32.625,8.22
1141,2019/6/27,19:00,35-16.09N,139-45.82E,144,22.799,32.6189,8.22
1142,2019/6/27,19:01,35-15.91N,139-45.98E,146,22.798,32.6523,8.22
1143,2019/6/27,19:02,35-15.72N,139-46.12E,147,22.848,32.732,8.22
1144,2019/6/27,19:03,35-15.53N,139-46.25E,157,22.883,32.7987,8.21
1145,2019/6/27,19:04,35-15.31N,139-46.30E,172,22.885,32.8409,8.21
1146,2019/6/27,19:05,35-15.09N,139-46.32E,177,22.79,32.8372,8.2
1147,2019/6/27,19:06,35-14.87N,139-46.33E,177,22.607,32.8543,8.19
1148,2019/6/27,19:07,35-14.66N,139-46.34E,177,22.508,32.9415,8.19
1149,2019/6/27,19:08,35-14.43N,139-46.35E,178,22.469,33.003,8.19
1150,2019/6/27,19:09,35-14.21N,139-46.35E,179,22.439,33.0691,8.18
1151,2019/6/27,19:10,35-14.00N,139-46.35E,180,22.35,33.1408,8.18
1152,2019/6/27,19:11,35-13.78N,139-46.35E,179,22.298,33.1973,8.18
1153,2019/6/27,19:12,35-13.56N,139-46.35E,179,22.252,33.3046,8.18
1154,2019/6/27,19:13,35-13.35N,139-46.36E,179,22.226,33.3982,8.17
1155,2019/6/27,19:14,35-13.13N,139-46.36E,179,22.226,33.4661,8.15
1156,2019/6/27,19:15,35-12.91N,139-46.34E,187,22.203,33.4876,8.15
1157,2019/6/27,19:16,35-12.67N,139-46.27E,194,22.153,33.4912,8.15
1158,2019/6/27,19:17,35-12.42N,139-46.20E,193,22.134,33.4725,8.14
1159,2019/6/27,19:18,35-12.15N,139-46.12E,192,22.099,33.5418,8.13
1160,2019/6/27,19:19,35-11.88N,139-46.04E,193,22.094,33.5565,8.13
1161,2019/6/27,19:20,35-11.59N,139-45.96E,192,22.144,33.5563,8.13
1162,2019/6/27,19:21,35-11.31N,139-45.89E,193,22.887,33.5713,8.13
1163,2019/6/27,19:22,35-11.02N,139-45.80E,193,23.227,33.7644,8.12
1164,2019/6/27,19:23,35-10.73N,139-45.71E,194,23.34,33.9654,8.11
1165,2019/6/27,19:24,35-10.44N,139-45.62E,193,23.337,34.1005,8.11
1166,2019/6/27,19:25,35-10.14N,139-45.53E,194,23.314,34.0935,8.11
1167,2019/6/27,19:26,35-09.85N,139-45.44E,194,23.283,34.0209,8.11
1168,2019/6/27,19:27,35-09.54N,139-45.34E,195,23.243,33.9649,8.12
1169,2019/6/27,19:28,35-09.24N,139-45.24E,194,23.278,33.861,8.12
1170,2019/6/27,19:29,35-08.93N,139-45.14E,194,23.297,33.8721,8.13
1171,2019/6/27,19:30,35-08.62N,139-45.04E,194,23.254,33.9051,8.13
1172,2019/6/27,19:31,35-08.30N,139-44.94E,194,23.217,33.8662,8.12
1173,2019/6/27,19:32,35-07.99N,139-44.84E,194,23.195,33.8019,8.13
1174,2019/6/27,19:33,35-07.67N,139-44.74E,194,23.169,33.7852,8.13
1175,2019/6/27,19:34,35-07.34N,139-44.63E,194,23.227,33.7449,8.14
1176,2019/6/27,19:35,35-07.01N,139-44.52E,194,23.116,33.754,8.13
1177,2019/6/27,19:36,35-06.67N,139-44.42E,194,23.077,33.7841,8.13
1178,2019/6/27,19:37,35-06.33N,139-44.31E,194,22.969,33.7261,8.13
1179,2019/6/27,19:38,35-05.99N,139-44.20E,194,22.936,33.7268,8.13
1180,2019/6/27,19:39,35-05.65N,139-44.09E,194,22.837,33.7944,8.13
1181,2019/6/27,19:40,35-05.31N,139-43.98E,194,22.605,33.9107,8.12
1182,2019/6/27,19:41,35-04.96N,139-43.87E,194,22.495,33.8372,8.12
1183,2019/6/27,19:42,35-04.62N,139-43.76E,194,22.493,33.7545,8.12
1184,2019/6/27,19:43,35-04.27N,139-43.66E,194,22.49,33.7564,8.12
1185,2019/6/27,19:44,35-03.92N,139-43.55E,194,22.487,33.7334,8.13
1186,2019/6/27,19:45,35-03.56N,139-43.44E,194,22.485,33.7022,8.12
1187,2019/6/27,19:46,35-03.20N,139-43.33E,193,22.492,33.6731,8.11
1188,2019/6/27,19:47,35-02.84N,139-43.22E,192,22.52,33.6547,8.12
1189,2019/6/27,19:48,35-02.47N,139-43.13E,191,22.494,33.6352,8.12
1190,2019/6/27,19:49,35-02.10N,139-43.03E,191,22.493,33.6169,8.12
1191,2019/6/27,19:50,35-01.72N,139-42.94E,191,22.486,33.593,8.12
1192,2019/6/27,19:51,35-01.35N,139-42.84E,191,22.474,33.5266,8.12
1193,2019/6/27,19:52,35-00.97N,139-42.75E,191,22.477,33.4094,8.13
1194,2019/6/27,19:53,35-00.59N,139-42.65E,191,22.46,33.3168,8.13
1195,2019/6/27,19:54,35-00.21N,139-42.55E,191,22.45,33.2683,8.15
1196,2019/6/27,19:55,34-59.84N,139-42.46E,191,22.45,33.21,8.15
1197,2019/6/27,19:56,34-59.46N,139-42.36E,191,22.478,33.1622,8.15
1198,2019/6/27,19:57,34-59.08N,139-42.26E,191,22.518,33.1268,8.15
1199,2019/6/27,19:58,34-58.70N,139-42.18E,187,22.682,33.1065,8.15
1200,2019/6/27,19:59,34-58.32N,139-42.17E,178,22.661,33.1158,8.16
1201,2019/6/27,20:00,34-57.93N,139-42.21E,175,22.945,33.1808,8.16
1202,2019/6/27,20:01,34-57.54N,139-42.25E,174,23.048,33.2708,8.15
1203,2019/6/27,20:02,34-57.15N,139-42.30E,173,22.959,33.4006,8.15
1204,2019/6/27,20:03,34-56.76N,139-42.36E,173,22.943,33.4886,8.15
1205,2019/6/27,20:04,34-56.37N,139-42.41E,173,22.963,33.5818,8.15
1206,2019/6/27,20:05,34-55.98N,139-42.48E,168,23.094,33.6387,8.15
1207,2019/6/27,20:06,34-55.62N,139-42.65E,156,23.588,33.7127,8.13
1208,2019/6/27,20:07,34-55.26N,139-42.87E,152,23.642,33.9982,8.13
1209,2019/6/27,20:08,34-54.90N,139-43.11E,151,23.705,34.1648,8.12
1210,2019/6/27,20:09,34-54.54N,139-43.34E,151,23.723,34.1829,8.1
1211,2019/6/27,20:10,34-54.19N,139-43.58E,151,23.744,34.1995,8.11
1212,2019/6/27,20:11,34-53.83N,139-43.84E,148,23.755,34.2023,8.11
1213,2019/6/27,20:12,34-53.48N,139-44.11E,147,23.755,34.2034,8.11
1214,2019/6/27,20:13,34-53.13N,139-44.38E,147,23.764,34.1994,8.1
1215,2019/6/27,20:14,34-52.78N,139-44.66E,146,23.791,34.2027,8.1
1216,2019/6/27,20:15,34-52.44N,139-44.94E,146,23.81,34.2228,8.1
1217,2019/6/27,20:16,34-52.09N,139-45.23E,145,23.817,34.2329,8.09
1218,2019/6/27,20:17,34-51.73N,139-45.53E,144,23.817,34.24,8.1
1219,2019/6/27,20:18,34-51.40N,139-45.85E,139,23.824,34.2455,8.09
1220,2019/6/27,20:19,34-51.09N,139-46.22E,134,23.821,34.2499,8.1
1221,2019/6/27,20:20,34-50.83N,139-46.62E,127,23.799,34.2537,8.1
1222,2019/6/27,20:21,34-50.59N,139-47.04E,121,23.775,34.2539,8.1
1223,2019/6/27,20:22,34-50.41N,139-47.49E,111,23.769,34.2513,8.1
1224,2019/6/27,20:23,34-50.31N,139-47.97E,102,23.793,34.2519,8.1
1225,2019/6/27,20:24,34-50.21N,139-48.44E,104,23.806,34.2605,8.1
1226,2019/6/27,20:25,34-50.11N,139-48.92E,103,23.802,34.2653,8.09
1227,2019/6/27,20:26,34-50.04N,139-49.40E,98,23.768,34.2799,8.1
1228,2019/6/27,20:27,34-50.00N,139-49.89E,94,23.612,34.298,8.1
1229,2019/6/27,20:28,34-49.98N,139-50.37E,92,22.93,34.3035,8.1
1230,2019/6/27,20:29,34-49.97N,139-50.84E,91,22.98,34.3005,8.1
1231,2019/6/27,20:30,34-49.96N,139-51.32E,91,22.808,34.2799,8.1
1232,2019/6/27,20:31,34-49.95N,139-51.79E,90,22.554,34.215,8.1
1233,2019/6/27,20:32,34-49.95N,139-52.26E,90,21.861,34.1325,8.09
1234,2019/6/27,20:33,34-49.95N,139-52.72E,91,21.543,34.0128,8.1
1235,2019/6/27,20:34,34-49.94N,139-53.18E,90,21.536,33.7573,8.1
1236,2019/6/27,20:35,34-49.94N,139-53.65E,90,21.747,33.6996,8.11
1237,2019/6/27,20:36,34-49.94N,139-54.12E,90,21.834,33.7175,8.11
1238,2019/6/27,20:37,34-49.95N,139-54.58E,88,21.807,33.7171,8.1
1239,2019/6/27,20:38,34-50.01N,139-55.04E,77,21.903,33.7195,8.1
1240,2019/6/27,20:39,34-50.14N,139-55.49E,68,21.754,33.7474,8.1
1241,2019/6/27,20:40,34-50.30N,139-55.92E,64,21.677,33.8521,8.1
1242,2019/6/27,20:41,34-50.46N,139-56.34E,64,21.796,33.9289,8.1
1243,2019/6/27,20:42,34-50.63N,139-56.77E,64,21.9,33.9395,8.1
1244,2019/6/27,20:43,34-50.80N,139-57.19E,64,21.943,33.9051,8.1
1245,2019/6/27,20:44,34-50.97N,139-57.62E,64,21.797,33.8782,8.1
1246,2019/6/27,20:45,34-51.14N,139-58.05E,64,21.911,33.8015,8.1
1247,2019/6/27,20:46,34-51.31N,139-58.49E,64,22.067,33.8156,8.11
1248,2019/6/27,20:47,34-51.49N,139-58.92E,62,21.959,33.748,8.1
1249,2019/6/27,20:48,34-51.68N,139-59.34E,60,21.981,33.7256,8.11
1250,2019/6/27,20:49,34-51.88N,139-59.75E,59,21.907,33.7283,8.1
1251,2019/6/27,20:50,34-52.08N,140-00.16E,59,22.145,33.7708,8.11
1252,2019/6/27,20:51,34-52.28N,140-00.58E,60,22.039,33.7732,8.11
1253,2019/6/27,20:52,34-52.47N,140-01.00E,60,21.655,33.7637,8.11
1254,2019/6/27,20:53,34-52.67N,140-01.42E,60,21.487,33.8001,8.11
1255,2019/6/27,20:54,34-52.86N,140-01.83E,60,21.018,33.8317,8.11
1256,2019/6/27,20:55,34-53.06N,140-02.24E,60,20.692,33.9512,8.11
1257,2019/6/27,20:56,34-53.25N,140-02.65E,60,20.596,34.0848,8.1
1258,2019/6/27,20:57,34-53.44N,140-03.06E,60,20.624,34.2314,8.08
1259,2019/6/27,20:58,34-53.64N,140-03.47E,60,20.864,34.3216,8.07
1260,2019/6/27,20:59,34-53.83N,140-03.88E,60,20.996,34.3258,8.07
1261,2019/6/27,21:00,34-54.02N,140-04.28E,60,21.088,34.3322,8.07
1262,2019/6/27,21:01,34-54.21N,140-04.69E,59,21.019,34.3108,8.07
1263,2019/6/27,21:02,34-54.40N,140-05.09E,60,21.04,34.3443,8.08
1264,2019/6/27,21:03,34-54.59N,140-05.49E,60,20.814,34.325,8.09
1265,2019/6/27,21:04,34-54.78N,140-05.90E,60,20.726,34.3508,8.09
1266,2019/6/27,21:05,34-54.97N,140-06.30E,60,20.722,34.421,8.1
1267,2019/6/27,21:06,34-55.16N,140-06.71E,61,20.764,34.4544,8.1
1268,2019/6/27,21:07,34-55.35N,140-07.12E,61,20.885,34.4662,8.09
1269,2019/6/27,21:08,34-55.54N,140-07.52E,59,21.163,34.4532,8.09
1270,2019/6/27,21:09,34-55.73N,140-07.93E,60,21.357,34.4566,8.09
1271,2019/6/27,21:10,34-55.92N,140-08.34E,60,21.463,34.4515,8.08
1272,2019/6/27,21:11,34-56.11N,140-08.76E,60,21.579,34.4383,8.09
1273,2019/6/27,21:12,34-56.31N,140-09.17E,60,21.664,34.4357,8.1
1274,2019/6/27,21:13,34-56.49N,140-09.57E,60,21.665,34.4331,8.1
1275,2019/6/27,21:14,34-56.68N,140-09.98E,60,21.692,34.4201,8.1
1276,2019/6/27,21:15,34-56.87N,140-10.39E,60,21.736,34.4169,8.1
1277,2019/6/27,21:16,34-57.06N,140-10.80E,60,21.694,34.4078,8.1
1278,2019/6/27,21:17,34-57.25N,140-11.20E,60,21.744,34.4089,8.1
1279,2019/6/27,21:18,34-57.45N,140-11.62E,60,21.943,34.4186,8.1
1280,2019/6/27,21:19,34-57.64N,140-12.03E,60,21.951,34.4023,8.1
1281,2019/6/27,21:20,34-57.83N,140-12.43E,60,21.908,34.3964,8.1
1282,2019/6/27,21:21,34-58.02N,140-12.84E,60,21.719,34.4172,8.09
1283,2019/6/27,21:22,34-58.22N,140-13.25E,59,21.766,34.4428,8.1
1284,2019/6/27,21:23,34-58.41N,140-13.66E,60,21.904,34.4611,8.08
1285,2019/6/27,21:24,34-58.60N,140-14.07E,60,21.877,34.4437,8.08
1286,2019/6/27,21:25,34-58.79N,140-14.48E,60,21.952,34.4358,8.08
1287,2019/6/27,21:26,34-58.99N,140-14.87E,58,22.075,34.4525,8.09
1288,2019/6/27,21:27,34-59.19N,140-15.28E,59,22.111,34.4596,8.08
1289,2019/6/27,21:28,34-59.39N,140-15.68E,59,22.21,34.4415,8.08
1290,2019/6/27,21:29,34-59.58N,140-16.09E,59,22.304,34.4252,8.08
1291,2019/6/27,21:30,34-59.78N,140-16.50E,59,22.409,34.4302,8.09
1292,2019/6/27,21:31,34-59.98N,140-16.90E,59,22.501,34.4317,8.09
1293,2019/6/27,21:32,35-00.17N,140-17.31E,60,22.265,34.4271,8.09
1294,2019/6/27,21:33,35-00.37N,140-17.72E,60,22.207,34.4018,8.1
1295,2019/6/27,21:34,35-00.56N,140-18.14E,60,22.114,34.3711,8.1
1296,2019/6/27,21:35,35-00.76N,140-18.55E,59,22.067,34.3373,8.1
1297,2019/6/27,21:36,35-00.96N,140-18.96E,60,22.198,34.3103,8.1
1298,2019/6/27,21:37,35-01.16N,140-19.37E,59,22.089,34.3001,8.1
1299,2019/6/27,21:38,35-01.35N,140-19.78E,59,21.759,34.2755,8.11
1300,2019/6/27,21:39,35-01.55N,140-20.18E,58,21.362,34.2566,8.11
1301,2019/6/27,21:40,35-01.75N,140-20.59E,59,22.16,34.1935,8.12
1302,2019/6/27,21:41,35-01.95N,140-20.99E,58,22.353,34.232,8.12
1303,2019/6/27,21:42,35-02.14N,140-21.39E,59,22.323,34.2666,8.12
1304,2019/6/27,21:43,35-02.34N,140-21.81E,59,22.444,34.2739,8.12
1305,2019/6/27,21:44,35-02.54N,140-22.21E,59,22.36,34.2789,8.11
1306,2019/6/27,21:45,35-02.74N,140-22.62E,58,22.456,34.265,8.11
1307,2019/6/27,21:46,35-02.93N,140-23.02E,60,22.385,34.2718,8.12
1308,2019/6/27,21:47,35-03.12N,140-23.42E,59,22.223,34.2399,8.12
1309,2019/6/27,21:48,35-03.32N,140-23.83E,60,22.255,34.2677,8.12
1310,2019/6/27,21:49,35-03.51N,140-24.24E,59,22.132,34.2826,8.13
1311,2019/6/27,21:50,35-03.71N,140-24.64E,60,22.062,34.2767,8.12
1312,2019/6/27,21:51,35-03.90N,140-25.05E,60,21.84,34.2648,8.12
1313,2019/6/27,21:52,35-04.09N,140-25.46E,60,21.719,34.2132,8.12
1314,2019/6/27,21:53,35-04.28N,140-25.87E,60,21.413,34.2086,8.12
1315,2019/6/27,21:54,35-04.47N,140-26.27E,60,20.81,34.2419,8.12
1316,2019/6/27,21:55,35-04.66N,140-26.68E,60,20.83,34.2999,8.12
1317,2019/6/27,21:56,35-04.85N,140-27.08E,60,21.121,34.3039,8.12
1318,2019/6/27,21:57,35-05.04N,140-27.49E,60,21.142,34.3062,8.11
1319,2019/6/27,21:58,35-05.22N,140-27.90E,60,20.814,34.2654,8.11
1320,2019/6/27,21:59,35-05.42N,140-28.31E,60,20.735,34.2726,8.12
1321,2019/6/27,22:00,35-05.61N,140-28.72E,60,20.572,34.2996,8.13
1322,2019/6/27,22:01,35-05.80N,140-29.13E,60,20.356,34.2956,8.13
1323,2019/6/27,22:02,35-05.99N,140-29.54E,60,20.142,34.298,8.13
1324,2019/6/27,22:03,35-06.18N,140-29.94E,60,19.929,34.3193,8.13
1325,2019/6/27,22:04,35-06.37N,140-30.36E,60,19.887,34.3275,8.11
1326,2019/6/27,22:05,35-06.56N,140-30.77E,60,19.813,34.348,8.1
1327,2019/6/27,22:06,35-06.75N,140-31.18E,60,19.664,34.3502,8.1
1328,2019/6/27,22:07,35-06.95N,140-31.59E,59,19.497,34.3481,8.09
1329,2019/6/27,22:08,35-07.15N,140-31.99E,54,19.51,34.3431,8.1
1330,2019/6/27,22:09,35-07.44N,140-32.27E,32,19.663,34.3399,8.1
1331,2019/6/27,22:10,35-07.76N,140-32.51E,32,19.717,34.3239,8.08
1332,2019/6/27,22:11,35-08.07N,140-32.76E,32,19.566,34.291,8.08
1333,2019/6/27,22:12,35-08.39N,140-33.01E,33,19.488,34.2671,8.08
1334,2019/6/27,22:13,35-08.72N,140-33.27E,33,19.494,34.2621,8.08
1335,2019/6/27,22:14,35-09.03N,140-33.52E,33,19.584,34.2789,8.08
1336,2019/6/27,22:15,35-09.35N,140-33.78E,33,19.799,34.272,8.07
1337,2019/6/27,22:16,35-09.67N,140-34.04E,34,19.93,34.2732,8.07
1338,2019/6/27,22:17,35-09.99N,140-34.31E,34,20.077,34.3263,8.07
1339,2019/6/27,22:18,35-10.31N,140-34.58E,34,20.259,34.3333,8.07
1340,2019/6/27,22:19,35-10.63N,140-34.84E,34,20.371,34.3258,8.07
1341,2019/6/27,22:20,35-10.95N,140-35.11E,33,20.428,34.3248,8.08
1342,2019/6/27,22:21,35-11.27N,140-35.37E,34,20.52,34.331,8.08
1343,2019/6/27,22:22,35-11.59N,140-35.63E,33,20.687,34.3373,8.1
1344,2019/6/27,22:23,35-11.91N,140-35.90E,34,20.829,34.3675,8.1
1345,2019/6/27,22:24,35-12.23N,140-36.16E,34,20.925,34.3701,8.1
1346,2019/6/27,22:25,35-12.55N,140-36.43E,34,21.058,34.3601,8.1
1347,2019/6/27,22:26,35-12.86N,140-36.70E,34,21.153,34.3629,8.11
1348,2019/6/27,22:27,35-13.18N,140-36.97E,34,21.252,34.3642,8.1
1349,2019/6/27,22:28,35-13.50N,140-37.23E,34,21.302,34.3639,8.11
1350,2019/6/27,22:29,35-13.82N,140-37.50E,34,21.329,34.3685,8.1
1351,2019/6/27,22:30,35-14.14N,140-37.76E,33,21.36,34.3761,8.11
1352,2019/6/27,22:31,35-14.46N,140-38.03E,35,21.315,34.376,8.11
1353,2019/6/27,22:32,35-14.78N,140-38.30E,34,21.16,34.3727,8.11
1354,2019/6/27,22:33,35-15.10N,140-38.56E,34,21.12,34.3723,8.11
1355,2019/6/27,22:34,35-15.42N,140-38.83E,33,21.015,34.3784,8.11
1356,2019/6/27,22:35,35-15.75N,140-39.10E,34,21.018,34.3846,8.11
1357,2019/6/27,22:36,35-16.06N,140-39.36E,34,20.855,34.3883,8.12
1358,2019/6/27,22:37,35-16.38N,140-39.63E,34,20.77,34.3855,8.11
1359,2019/6/27,22:38,35-16.71N,140-39.90E,34,20.723,34.3798,8.11
1360,2019/6/27,22:39,35-17.03N,140-40.16E,33,20.636,34.3754,8.11
1361,2019/6/27,22:40,35-17.35N,140-40.41E,33,20.567,34.3727,8.11
1362,2019/6/27,22:41,35-17.68N,140-40.68E,33,20.41,34.3772,8.1
1363,2019/6/27,22:42,35-18.00N,140-40.94E,33,20.586,34.3884,8.11
1364,2019/6/27,22:43,35-18.32N,140-41.20E,34,20.718,34.3939,8.1
1365,2019/6/27,22:44,35-18.63N,140-41.45E,32,20.838,34.3876,8.1
1366,2019/6/27,22:45,35-18.95N,140-41.71E,33,20.803,34.3993,8.1
1367,2019/6/27,22:46,35-19.27N,140-41.97E,33,20.745,34.401,8.1
1368,2019/6/27,22:47,35-19.58N,140-42.22E,33,20.624,34.4071,8.1
1369,2019/6/27,22:48,35-19.90N,140-42.48E,33,20.571,34.404,8.1
1370,2019/6/27,22:49,35-20.21N,140-42.73E,33,20.57,34.4043,8.12
1371,2019/6/27,22:50,35-20.52N,140-42.98E,33,20.566,34.4059,8.12
1372,2019/6/27,22:51,35-20.84N,140-43.24E,33,20.606,34.4129,8.11
1373,2019/6/27,22:52,35-21.16N,140-43.49E,33,20.769,34.4035,8.11
1374,2019/6/27,22:53,35-21.49N,140-43.75E,32,20.954,34.3905,8.12
1375,2019/6/27,22:54,35-21.80N,140-44.00E,33,21.04,34.3733,8.12
1376,2019/6/27,22:55,35-22.12N,140-44.25E,33,21.104,34.3607,8.12
1377,2019/6/27,22:56,35-22.44N,140-44.51E,32,21.228,34.3534,8.12
1378,2019/6/27,22:57,35-22.76N,140-44.76E,32,21.308,34.3413,8.12
1379,2019/6/27,22:58,35-23.08N,140-45.01E,33,21.418,34.3301,8.13
1380,2019/6/27,22:59,35-23.40N,140-45.27E,32,21.522,34.3233,8.13
1381,2019/6/27,23:00,35-23.72N,140-45.52E,32,21.516,34.323,8.13
1382,2019/6/27,23:01,35-24.04N,140-45.77E,32,21.51,34.3198,8.14
1383,2019/6/27,23:02,35-24.37N,140-46.03E,33,21.491,34.3169,8.13
1384,2019/6/27,23:03,35-24.69N,140-46.28E,32,21.547,34.3,8.13
1385,2019/6/27,23:04,35-25.01N,140-46.54E,33,21.521,34.2821,8.13
1386,2019/6/27,23:05,35-25.33N,140-46.80E,32,21.516,34.2682,8.13
1387,2019/6/27,23:06,35-25.66N,140-47.07E,33,21.51,34.2619,8.14
1388,2019/6/27,23:07,35-25.98N,140-47.32E,33,21.489,34.2489,8.14
1389,2019/6/27,23:08,35-26.30N,140-47.58E,33,21.469,34.2386,8.15
1390,2019/6/27,23:09,35-26.62N,140-47.84E,33,21.549,34.2341,8.15
1391,2019/6/27,23:10,35-26.94N,140-48.09E,33,21.693,34.2406,8.14
1392,2019/6/27,23:11,35-27.26N,140-48.36E,33,21.838,34.2497,8.14
1393,2019/6/27,23:12,35-27.58N,140-48.61E,33,21.91,34.2516,8.15
1394,2019/6/27,23:13,35-27.90N,140-48.88E,33,21.952,34.2489,8.15
1395,2019/6/27,23:14,35-28.23N,140-49.15E,33,21.958,34.2418,8.15
1396,2019/6/27,23:15,35-28.55N,140-49.41E,33,21.948,34.2477,8.15
1397,2019/6/27,23:16,35-28.88N,140-49.67E,33,21.899,34.2677,8.15
1398,2019/6/27,23:17,35-29.20N,140-49.93E,33,21.712,34.2841,8.14
1399,2019/6/27,23:18,35-29.52N,140-50.19E,33,21.593,34.1715,8.14
1400,2019/6/27,23:19,35-29.84N,140-50.45E,34,21.489,34.0138,8.15
1401,2019/6/27,23:20,35-30.17N,140-50.72E,33,21.383,33.9274,8.14
1402,2019/6/27,23:21,35-30.49N,140-50.98E,33,21.295,33.8381,8.15
1403,2019/6/27,23:22,35-30.81N,140-51.24E,33,21.126,33.7741,8.15
1404,2019/6/27,23:23,35-31.13N,140-51.50E,33,21.025,33.7388,8.15
1405,2019/6/27,23:24,35-31.45N,140-51.76E,34,20.967,33.7115,8.15
1406,2019/6/27,23:25,35-31.77N,140-52.02E,33,20.948,33.7048,8.15
1407,2019/6/27,23:26,35-32.09N,140-52.29E,33,20.936,33.7256,8.15
1408,2019/6/27,23:27,35-32.41N,140-52.54E,33,20.888,33.7655,8.15
1409,2019/6/27,23:28,35-32.73N,140-52.81E,33,20.93,33.7928,8.14
1410,2019/6/27,23:29,35-33.06N,140-53.07E,33,20.979,33.8411,8.13
1411,2019/6/27,23:30,35-33.38N,140-53.33E,33,21.082,33.8734,8.12
1412,2019/6/27,23:31,35-33.70N,140-53.60E,33,21.162,33.9238,8.12